Regional Weather Roundup
Issued by NWS Upton, NY

Current Version | Previous Version | Text Only | Print | Product List | Glossary On
Versions: 1 2 3 4 5 6 7 8 9 10 11 12 13 14 15 16 17 18 19 20 21 22 23 24 25 26 27
000
ASUS41 KOKX 260909
RWROKX

REGIONAL WEATHER ROUNDUP
NATIONAL WEATHER SERVICE NEW YORK NY
500 AM EDT WED APR 26 2017

NOTE: "FAIR" INDICATES FEW OR NO CLOUDS BELOW 12,000 FEET WITH NO
SIGNIFICANT WEATHER AND/OR OBSTRUCTIONS TO VISIBILITY.

NYZ071-072-176-178-NJZ106-104-261000-
NEW YORK CITY METRO AREA

CITY           SKY/WX    TMP DP  RH WIND       PRES   REMARKS
Central Park   RAIN      55  54  96 VRB5      29.78S FOG
Wall St Helipt CLOUDY    55  54  94 NE16      29.76R
Bronx Bot Gard   N/A     54  54 100 SE6       29.78S
LaGuardia APRT LGT RAIN  53  52  96 NE10      29.75F VSB 1/2
Kennedy INTL   HVY RAIN  55  54  96 NE10      29.75F FOG
Breezy Point     N/A     52 N/A N/A NE13G18     N/A
Newark/Liberty LGT RAIN  53  53 100 N13       29.75F FOG
Teterboro      DRIZZLE   54  53  97 N8        29.76S FOG
$$

NYZ177-179-078>081-261000-
LONG ISLAND NEW YORK

CITY           SKY/WX    TMP DP  RH WIND       PRES   REMARKS
Jones Beach      N/A     54 N/A N/A NE16        N/A
Matinecock PT    N/A     50 N/A N/A E13         N/A
Farmingdale    LGT RAIN  53  52  96 NE9       29.75R FOG
MacArthur/ISP  CLOUDY    53  53 100 NE10      29.75R FOG
Shirley        CLOUDY    53  52  96 N7        29.77R FOG
Mt Sinai Harb    N/A    N/A N/A N/A E5G10       N/A
Westhampton    CLOUDY    53  52  96 VRB3      29.78R FOG
East Hampton   CLOUDY    52  52  98 SE15G21   29.75R FOG
Montauk        NOT AVBL
$$

NYZ052-065-067-261000-
HUDSON VALLEY

CITY           SKY/WX    TMP DP  RH WIND       PRES   REMARKS
White Plains   LGT RAIN  54  52  93 NE9       29.75F FOG
Larchmont Harb   N/A     54 N/A N/A N13         N/A
Croton O-T Hud   N/A     52 N/A N/A N2          N/A
Newburgh       NOT AVBL
Montgomery     LGT RAIN  52  50  93 NE12      29.80F FOG
Poughkeepsie   CLOUDY    50  49  96 N9        29.81F
Albany         DRIZZLE   50  48  93 N5        29.89S
$$

NJZ001-105-106-008-010-013-015-019>022-104-261000-
NEW JERSEY

CITY           SKY/WX    TMP DP  RH WIND       PRES   REMARKS
Newark/Liberty LGT RAIN  53  53 100 N13       29.75F FOG
Teterboro      DRIZZLE   54  53  97 N8        29.76S FOG
Caldwell       LGT RAIN  53  52  96 NE6       29.77S
Somerville     CLOUDY    55  53  93 NE9       29.73S
Linden         RAIN      55  53  95 NE10G17   29.74F
Sussex         CLOUDY    51  51 100 NE8       29.79F
Andover          N/A     51  50  96 NE8       29.77F
Trenton        CLOUDY    55  55 100 NE9       29.71F FOG
Millville      CLOUDY    58  58 100 NE7       29.67R
Atlantic City  CLOUDY    57  55  93 NE5       29.67R
Wrightstown    CLOUDY    55  55  98 N10       29.68F
Toms River     CLOUDY    54  54 100 N10       29.71R
Belmar         LGT RAIN  54  54 100 N10       29.72S
$$

PAZ047>061-062-071-261000-
EASTERN PENNSYLVANIA

CITY           SKY/WX    TMP DP  RH WIND       PRES   REMARKS
Philadelphia   LGT RAIN  56  54  93 NE12      29.70F
Allentown      LGT RAIN  53  50  89 NE10      29.75S
Scranton       CLOUDY    53  51  93 NE7       29.79S
$$

CTZ002-004>006-009-010-012-RIZ004-006-007-MAZ004-011-015-261000-
SOUTHERN NEW ENGLAND
 IN CT

CITY           SKY/WX    TMP DP  RH WIND       PRES   REMARKS
Bradley INTL   LGT RAIN  48  47  96 N13       29.85F FOG
Hartford       LGT RAIN  49  48  97 N10       29.82F FOG
Danbury        LGT RAIN  50  50 100 NE12      29.81F FOG
Wtrbury/Oxford CLOUDY    48  45  87 NE10      29.81F
Bridgeport     LGT RAIN  54  51  90 N13       29.78S FOG
Meriden        LGT RAIN  51  48  89 N10       29.80F FOG
New Haven      CLOUDY    50  49  96 N14G24    29.78F
Chester        LGT RAIN  54  54 100 NE7       29.79S
Groton         CLOUDY    56  54  93 E18G26    29.77F
Wilimantic     LGT RAIN  52  50  93 NE13      29.82F

 IN RI

CITY           SKY/WX    TMP DP  RH WIND       PRES   REMARKS
Providence     CLOUDY    53  53 100 N9        29.85F
Block Island   NOT AVBL
Westerly       CLOUDY    56  55  97 E15G28    29.79F FOG
 IN MA

CITY           SKY/WX    TMP DP  RH WIND       PRES   REMARKS
Boston         RAIN      50  50 100 NE20      29.91F FOG
Worcester      LGT RAIN  43  42  97 N14G22    29.88F
Westfield      LGT RAIN  48  48 100 N12       29.87F FOG
Provincetown   CLOUDY    54  53  97 SE15G23   29.91F
Nantucket      FOG       52  51  97 E21G30    29.88S VSB 1
$$

ANZ330-335-338-340-345-350-353-355-261000-
COASTAL MARINE OBSERVATIONS


STATION/POSITION TIME  SKY/WX   TEMP    WIND        PRES    VSBY  WAVE
                                AIR SEA DIR/SP/G                  HT/PER
                 (UTC)          (F)     (DEG/KT/KT) (MB)    (MI)  (FT/S)
NY HARB ENTRANCE 0750            50 48   30/ 12/ 16 1006.6          9/11
20 S FIRE ISLAND 0850            51 47   60/  8/ 10 1005.5         10/11
GREAT SOUTH BAY  0830            55 55   30/  8/ 14   N/A
23 SSW MONTAUK P 0750            51 45              1006.0         10/11
15 E BARNEGAT LI 0830               50                N/A          10/11
HUDSON CANYON    0750            52 47  120/ 12/ 14 1004.8         11/11
KINGS POINT      0836            53 48   90/  7/ 13 1007.3
EXECUTION ROCKS  NOT AVBL
CENTRAL LI SOUND 0845            50      60/ 16/ 19   N/A           2/ 5
EASTERN LI SOUND NOT AVBL
ROBBINS REEF     0848            55      40/ 18/ 21 1007.3
$$


>>>>>>>>>>>>>>>>>>>>>>>>>>>> KEY <<<<<<<<<<<<<<<<<<<<<<<<<<<
>                                                          <
>     SKY/WX - Sky Condition/Present Weather               <
>     TMP    - Temperature in Fahrenheit                   <
>     DP     - Dew Point in Fahrenheit                     <
>     RH     - Relative Humidity in Percent                <
>     WIND   - Direction (from) and Speed in MPH           <
>     PRES   - Mean Sea Level Pressure (inches of Hg)      <
>     WCI    - Wind Chill Index                            <
>     VSB    - VISIBILITY IN MILES                         <
>     HX     - HEAT INDEX                                  <
>     TC     - TEMPERATURE IN CELSIUS                      <
>     VRB    - VARIABLE WIND DIRECTION                     <
>                                                          <
>>>>>>>>>>>>>>>>>>>>>>>>>>>> KEY <<<<<<<<<<<<<<<<<<<<<<<<<<<




USA.gov is the U.S. government's official web portal to all federal, state and local government web resources and services.